This is the latest recevied weather packets stored in our database for station/object IT9CNT. If no packets are shown the sender has not sent any weather packets the latest 1 day(s).
| Time | Temp. | Humidity | Pressure | Rain* | Wind** | Luminosity | Snow |
|---|---|---|---|---|---|---|---|
| 1778044443 | 15.56° C | 75% | 1011.8 hPa | 0 mm | 3.58 m/s, 95° | - | - |
| 1778044383 | 15.56° C | 75% | 1011.8 hPa | 0 mm | 3.58 m/s, 95° | - | - |
| 1778044323 | 15.56° C | 75% | 1011.5 hPa | 0 mm | 3.58 m/s, 94° | - | - |
| 1778044263 | 15.56° C | 75% | 1011.6 hPa | 0 mm | 3.13 m/s, 95° | - | - |
| 1778044203 | 15.56° C | 75% | 1011.6 hPa | 0 mm | 3.13 m/s, 99° | - | - |
| 1778044143 | 15.56° C | 75% | 1011.7 hPa | 0 mm | 3.13 m/s, 97° | - | - |
| 1778044083 | 15.56° C | 75% | 1011.7 hPa | 0 mm | 3.13 m/s, 96° | - | - |
| 1778044023 | 15.56° C | 75% | 1011.7 hPa | 0 mm | 3.13 m/s, 92° | - | - |
| 1778043963 | 15.56° C | 75% | 1011.8 hPa | 0 mm | 3.13 m/s, 88° | - | - |
| 1778043903 | 15.56° C | 75% | 1011.6 hPa | 0 mm | 3.13 m/s, 89° | - | - |
| 1778043843 | 15.56° C | 75% | 1011.7 hPa | 0 mm | 3.13 m/s, 88° | - | - |
| 1778043783 | 15.56° C | 75% | 1011.6 hPa | 0 mm | 3.13 m/s, 87° | - | - |
| 1778043723 | 15.56° C | 75% | 1011.8 hPa | 0 mm | 3.13 m/s, 86° | - | - |
| 1778043663 | 15.56° C | 74% | 1011.8 hPa | 0 mm | 3.13 m/s, 87° | - | - |
| 1778043603 | 15.56° C | 74% | 1011.8 hPa | 0 mm | 3.13 m/s, 87° | - | - |
| 1778043551 | 15.56° C | 74% | 1011.6 hPa | 0 mm | 3.13 m/s, 93° | - | - |
| 1778043483 | 15.56° C | 74% | 1011.8 hPa | 0 mm | 3.13 m/s, 93° | - | - |
| 1778043423 | 15.56° C | 74% | 1011.8 hPa | 0 mm | 3.13 m/s, 94° | - | - |
| 1778043363 | 15.56° C | 74% | 1011.7 hPa | 0 mm | 3.13 m/s, 95° | - | - |
| 1778043303 | 15.56° C | 74% | 1011.8 hPa | 0 mm | 3.13 m/s, 91° | - | - |
| 1778043243 | 15.56° C | 74% | 1012 hPa | 0 mm | 2.68 m/s, 90° | - | - |
| 1778043183 | 15.56° C | 74% | 1011.7 hPa | 0 mm | 2.68 m/s, 91° | - | - |
| 1778043123 | 15.56° C | 74% | 1012 hPa | 0 mm | 2.68 m/s, 94° | - | - |
| 1778043063 | 15.56° C | 74% | 1011.7 hPa | 0 mm | 2.68 m/s, 90° | - | - |
| 1778043003 | 15.56° C | 74% | 1011.8 hPa | 0 mm | 2.68 m/s, 89° | - | - |
* Rain latest hour (hover to see other rain measurements)
** Current wind speed in m/s (hover to see current wind gust speed)